McCook, NE

8:24 AM CST on December 12, 2019 (GMT -0600)
McCook Municipal

Weather History for KMCK - November, 2019

Change the Weather History Date:

Monday, November 18, 2019

  Actual Average Record
Temperature  
Mean Temperature 51 °F 37 °F  
Max Temperature 68 °F 51 °F 76 °F (1933)
Min Temperature 34 °F 23 °F -1 °F (1909)
Degree Days  
Heating Degree Days 14    
Growing Degree Days 1 (Base 50)    
Moisture  
Dew Point 31 °F    
Average Humidity 48    
Maximum Humidity 65    
Minimum Humidity 24    
Precipitation  
Precipitation T in 0.02 in 0.73 in (2004)
Month to date precipitation 0.05 0.62  
Year to date precipitation 18.61 21.56  
Sea Level Pressure  
Sea Level Pressure 29.86 in    
Wind  
Wind Speed 12 mph ()    
Max Wind Speed 25 mph    
Max Gust Speed 37 mph    
Visibility 10.0 miles    
Events Rain    
T = Trace of Precipitation, MM = Missing Value Source: Averaged Metar Reports

Daily Weather History Graph

Daily Weather History Graph

Search for Another Location

Airport or City:

Astronomy

Nov. 18, 2019 Rise Set
Actual Time 7:31 AM CST 5:23 PM CST
Civil Twilight 7:01 AM CST 5:52 PM CST
Nautical Twilight 6:28 AM CST 6:25 PM CST
Astronomical Twilight 5:56 AM CST 6:57 PM CST
Moon 11:10 PM CST (11/18) 1:03 PM CST (11/18)
Length of Visible Light 10h 50m
Length of Day
9h 52m
Waning Gibbous, 63% of the Moon is Illuminated
Nov 18
Waning Gibbous
Nov 19
Last Quarter
Nov 26
New
Dec 4
First Quarter
Dec 11
Full

Hourly Weather History & Observations

Time (CST) Temp. Windchill Dew Point Humidity Pressure Visibility Wind Dir Wind Speed Gust Speed Precip Events Conditions
12:53 AM 48.0 °F - 26.1 °F 42% 29.82 in 10.0 mi West 10.4 mph - N/A   Overcast
1:53 AM 48.0 °F - 27.0 °F 44% 29.80 in 10.0 mi West 12.7 mph - N/A   Overcast
2:53 AM 46.9 °F - 27.0 °F 46% 29.80 in 10.0 mi West 15.0 mph - N/A   Overcast
3:53 AM 46.0 °F 39.0 °F 30.0 °F 54% 29.80 in 10.0 mi West 17.3 mph 24.2 mph 0.00 in Rain Light Rain
4:53 AM 46.0 °F 41.9 °F 30.9 °F 56% 29.81 in 10.0 mi WSW 8.1 mph - 0.00 in   Overcast
5:53 AM 42.1 °F 36.1 °F 30.9 °F 65% 29.82 in 10.0 mi WSW 10.4 mph - N/A   Scattered Clouds
6:53 AM 44.1 °F 38.1 °F 30.9 °F 60% 29.84 in 10.0 mi WNW 11.5 mph - N/A   Clear
7:53 AM 45.0 °F 38.9 °F 34.0 °F 65% 29.87 in 10.0 mi NW 12.7 mph - N/A   Clear
8:53 AM 50.0 °F - 37.0 °F 61% 29.89 in 10.0 mi WNW 10.4 mph - N/A   Clear
9:53 AM 57.0 °F - 37.9 °F 49% 29.89 in 10.0 mi NW 12.7 mph - N/A   Clear
10:53 AM 61.0 °F - 36.0 °F 39% 29.87 in 10.0 mi WNW 15.0 mph - N/A   Clear
11:53 AM 66.0 °F - 37.9 °F 36% 29.86 in 10.0 mi NW 15.0 mph 23.0 mph N/A   Clear
12:53 PM 66.9 °F - 37.9 °F 34% 29.82 in 10.0 mi North 16.1 mph 25.3 mph N/A   Clear
1:53 PM 66.9 °F - 36.0 °F 32% 29.81 in 10.0 mi NNW 20.7 mph 31.1 mph N/A   Partly Cloudy
2:53 PM 68.0 °F - 34.0 °F 28% 29.80 in 10.0 mi NNW 23.0 mph 33.4 mph N/A   Clear
3:53 PM 66.0 °F - 28.0 °F 24% 29.83 in 10.0 mi NW 25.3 mph 36.8 mph N/A   Clear
4:53 PM 62.1 °F - 28.0 °F 28% 29.85 in 10.0 mi NNW 18.4 mph 31.1 mph N/A   Clear
5:53 PM 55.0 °F - 27.0 °F 34% 29.89 in 10.0 mi NNW 15.0 mph - N/A   Clear
6:53 PM 46.0 °F 41.4 °F 26.1 °F 46% 29.92 in 10.0 mi NNW 9.2 mph - N/A   Clear
7:53 PM 46.0 °F 41.4 °F 27.0 °F 47% 29.94 in 10.0 mi WNW 9.2 mph - N/A   Clear
8:53 PM 39.9 °F 34.5 °F 26.1 °F 58% 29.95 in 10.0 mi NW 8.1 mph - N/A   Clear
9:53 PM 37.0 °F 31.0 °F 26.1 °F 65% 29.94 in 10.0 mi WSW 8.1 mph - N/A   Clear
10:53 PM 37.0 °F 32.4 °F 26.1 °F 65% 29.92 in 10.0 mi NNW 5.8 mph - N/A   Clear
11:53 PM 37.0 °F 31.0 °F 26.1 °F 65% 29.93 in 10.0 mi West 8.1 mph - N/A   Clear